{"data":{"norad_id":55580,"epoch":"2026-05-25T00:38:54.459744Z","epoch_age_seconds":65903,"freshness":"FRESH","line1":"1 55580U 23020M   26145.02701921  .00000054  00000+0  11473-4 0  9998","line2":"2 55580  43.0025 268.4354 0001390 268.2009  91.8683 15.27577759180886","mean_motion":15.27577759,"eccentricity":0.000139,"inclination_deg":43.0025,"raan_deg":268.4354,"arg_perigee_deg":268.2009,"mean_anomaly_deg":91.8683,"bstar":1.1473e-5,"rev_number":18088,"period_min":94.266887005652,"perigee_km":482.10210060796,"apogee_km":484.00951220814,"semimajor_km":6861.1928064081,"source":"CELESTRAK","updated_at":"2026-05-25T13:38:17.836553Z"}}